Dewpoint
61 58 47 40 38 28 22 16 33 26 31 44 47 48 49 51 50 45 65 67 68 69 69 69 71 70 69 68 67 65 65 64 63 63 63 62 62 62 62 62 62 62 62 62 62 63 63 63 63
59 59 55 41 31 26 25 25 23 20 43 49 46 50 52 52 59 62 65 68 68 68 69 68 70 68 67 66 65 64 63 63 63 62 62 62 62 62 62 62 62 61 62 62 61 62 62 61 62
59 56 53 46 32 31 28 24 23 28 46 45 45 51 55 56 61 63 66 68 68 68 67 67 69 67 65 65 64 63 63 63 62 62 62 61 61 62 61 61 61 61 61 61 61 61 60 60 60
59 52 49 40 36 31 24 27 31 39 48 43 46 50 52 57 62 65 67 67 67 66 66 67 68 66 65 64 63 63 63 62 62 61 61 61 61 61 61 61 61 61 61 60 60 60 58 58 60
55 50 43 43 39 33 28 28 31 35 44 42 43 48 52 61 64 66 66 66 65 64 65 64 67 65 64 63 63 62 62 62 62 61 61 61 61 61 61 60 60 61 60 60 59 57 57 58 60
48 48 41 36 37 37 36 35 32 34 41 41 51 54 56 63 65 65 65 64 64 64 63 63 65 65 64 64 62 61 61 61 61 61 61 61 60 60 60 60 59 59 58 58 57 57 57 59 59
43 43 37 36 40 41 41 40 31 33 34 39 53 52 55 63 63 63 64 63 63 63 62 62 62 63 64 63 63 63 62 62 61 61 60 59 60 60 60 58 57 57 56 55 55 56 58 59 59
47 44 38 38 36 39 37 43 36 41 32 39 45 51 56 60 61 63 63 62 62 62 61 61 61 61 60 60 63 63 62 62 61 60 61 62 61 60 60 59 57 55 54 54 54 56 58 59 59
46 42 37 36 36 39 41 41 45 46 44 38 42 46 54 61 61 61 61 61 61 61 60 60 60 60 60 61 61 63 63 61 61 59 58 55 53 54 55 58 58 55 53 53 53 53 52 51 53
43 39 37 41 43 39 42 42 43 41 43 40 42 44 58 59 60 59 58 58 59 60 59 60 59 59 59 60 59 59 60 58 57 53 52 52 51 50 51 53 54 51 50 51 51 48 45 41 37
42 39 40 40 44 44 41 43 44 40 36 39 42 43 52 58 58 58 57 57 57 59 60 59 58 58 57 57 56 56 55 54 52 51 52 48 45 43 42 41 41 41 42 38 39 37 36 34 36
41 44 43 44 43 44 42 43 43 43 41 44 43 43 47 56 56 57 57 57 57 58 59 58 58 56 55 55 54 53 51 51 51 50 47 44 41 38 38 38 38 38 38 35 36 37 35 34 34
44 42 44 44 42 45 45 43 41 43 44 47 46 43 45 56 56 55 56 56 57 57 58 58 57 55 55 53 52 49 49 50 48 47 45 42 38 35 35 35 36 36 36 35 33 33 34 34 34
43 44 43 43 45 45 44 43 43 42 45 43 45 47 45 54 53 52 54 55 57 57 58 58 56 54 54 52 49 49 48 47 47 45 42 39 37 35 34 34 34 35 35 34 34 32 32 34 34
44 41 41 43 44 44 45 43 43 41 45 44 43 47 45 44 46 50 52 53 55 56 58 57 55 53 52 50 49 47 47 45 44 42 39 37 36 34 34 34 34 34 34 33 33 32 32 31 32
40 40 36 38 43 45 44 35 39 44 43 43 42 44 48 45 44 47 49 51 53 54 56 57 54 52 50 49 49 46 43 43 42 39 37 36 35 34 34 34 34 34 34 34 34 34 29 30 32
38 34 35 35 40 41 43 37 39 43 41 42 43 42 45 45 44 42 43 49 50 53 55 55 51 51 49 49 46 43 40 40 38 36 36 35 34 34 34 34 34 34 35 34 33 34 32 29 30
32 34 34 33 38 42 40 39 41 41 42 40 42 40 42 44 43 43 43 44 48 52 54 53 50 49 50 47 43 41 38 37 36 35 35 35 34 35 35 35 35 36 34 32 33 31 32 32 32
35 35 36 36 36 39 38 39 40 41 42 41 40 41 41 44 44 45 44 43 46 50 53 51 49 49 48 45 41 39 37 36 36 35 35 34 35 36 36 36 36 36 32 30 30 33 29 31 33
36 35 35 37 35 39 37 38 40 41 41 42 40 40 41 42 43 43 45 44 45 48 51 50 49 49 48 45 42 40 37 38 37 37 35 36 36 37 36 37 36 34 30 29 29 28 27 27 33
34 34 35 35 36 37 37 35 37 40 42 42 42 40 40 42 43 43 44 44 44 47 50 49 49 49 47 44 41 40 39 38 37 36 36 37 37 38 38 38 35 32 31 30 29 28 27 23 27
29 32 32 32 33 28 37 27 31 35 40 42 42 41 40 40 42 42 43 44 43 46 49 49 49 48 46 42 40 37 36 35 36 36 37 38 38 38 38 36 33 30 29 28 27 27 28 25 23
29 33 32 33 32 33 33 31 29 33 35 40 42 42 40 40 41 42 43 44 44 46 48 48 48 47 44 42 40 38 36 37 37 37 37 37 38 36 34 33 29 27 28 25 23 23 25 26 23
34 33 33 33 33 26 27 30 25 29 31 36 40 42 43 40 40 41 43 44 45 45 48 47 48 46 43 42 40 38 37 36 36 36 37 37 36 34 31 29 27 26 24 24 25 24 22 22 22
33 30 23 21 22 19 24 28 26 26 26 34 38 40 42 44 40 41 42 43 45 46 47 47 47 45 43 41 39 39 37 35 35 35 36 35 34 32 27 25 24 24 25 25 25 23 22 23 22
31 29 21 13 17 18 26 25 26 28 29 31 37 40 42 43 41 40 42 43 45 46 47 47 47 45 42 41 40 38 37 36 35 36 37 36 33 31 26 24 23 23 24 24 24 25 25 24 24
30 29 28 25 27 22 25 24 25 27 25 29 30 37 41 42 42 39 42 43 45 46 47 47 47 45 42 41 40 38 36 35 35 36 37 35 31 26 24 22 23 24 25 24 24 24 23 23 24
29 30 26 28 19 16 21 20 21 22 24 25 27 30 40 39 38 38 41 44 46 47 47 48 48 45 42 41 39 38 36 35 35 36 35 31 26 23 23 24 24 24 24 24 24 23 23 22 24
29 28 30 29 25 20 21 17 20 20 20 20 22 27 36 38 33 37 41 44 46 47 47 48 47 45 42 41 39 37 36 35 34 34 30 25 23 24 24 23 23 23 22 22 22 22 22 23 23
29 27 28 27 26 26 20 21 25 25 24 23 22 23 26 39 34 37 41 43 45 46 47 48 47 44 42 40 38 36 34 33 31 27 23 24 24 23 23 23 22 22 23 23 22 22 23 23 23
Lifted_Index
4 3 1 -0 1 2 3 4 4 4 3 3 3 2 1 1 1 1 0 -0 -1 -1 -2 -2 -2 -1 -0 1 2 2 3 3 4 4 4 4 4 5 5 5 5 5 5 5 5 5 5 4 4
5 3 1 0 1 2 3 3 4 4 4 3 2 2 1 1 0 0 -0 -1 -1 -1 -1 -1 -1 -0 1 1 2 3 3 4 4 4 4 4 5 5 5 5 5 6 6 6 6 6 5 5 5
5 4 2 1 1 2 2 2 3 4 3 2 2 1 1 0 -0 -1 -1 -1 -1 -1 -1 -0 0 1 2 2 3 3 4 4 4 4 5 5 5 5 6 6 6 6 6 7 7 7 7 7 6
4 4 3 3 2 2 1 1 2 3 2 2 2 1 1 -0 -1 -1 -1 -1 -1 -0 0 1 1 2 2 3 3 4 4 4 4 5 5 5 5 6 6 6 7 7 7 7 8 8 8 8 7
4 4 4 4 4 2 1 0 1 2 2 2 1 1 0 -1 -1 -2 -1 -0 0 0 1 1 2 2 3 3 4 4 4 4 5 5 5 5 6 6 6 7 7 7 8 8 9 9 9 9 8
5 5 5 5 5 3 1 0 0 1 1 1 1 0 -0 -1 -1 -1 -1 0 1 1 2 2 2 3 3 3 4 4 4 5 5 5 5 6 6 6 7 7 8 8 9 9 10 10 10 9 9
5 6 6 6 6 4 2 1 0 0 1 1 0 -0 -0 -1 -1 -1 -0 1 1 2 2 3 3 3 3 4 4 4 5 5 5 5 6 6 7 7 7 8 9 10 10 11 11 10 9 9 9
5 6 6 6 6 5 3 2 1 0 0 0 -0 -0 -0 -1 -1 -1 0 1 2 2 3 3 4 4 4 4 4 4 5 5 6 6 7 7 8 8 9 9 10 11 11 12 12 11 10 10 9
6 6 6 6 6 5 4 2 1 1 0 -0 -0 -0 -0 -1 -1 -1 1 1 2 2 3 4 4 4 4 5 5 5 5 6 7 8 9 10 10 11 11 11 11 12 13 13 13 13 12 12 11
7 7 7 6 6 5 4 3 2 1 0 -0 0 0 -0 -1 -1 -1 1 2 2 3 3 4 4 5 5 5 6 6 6 7 8 10 11 12 13 13 14 13 13 14 15 15 15 14 14 13 13
7 7 7 6 6 5 5 3 2 2 1 0 1 1 0 -1 -1 -1 1 2 2 3 3 4 5 5 6 6 7 7 8 9 10 10 12 13 14 15 15 15 16 16 17 17 17 16 16 15 14
7 7 6 6 6 6 5 4 3 2 2 1 1 2 1 -1 -1 -1 0 1 2 3 3 4 5 6 7 8 8 8 9 9 10 11 12 14 15 15 16 16 16 17 18 18 18 18 17 17 16
6 6 6 6 6 6 5 4 3 3 2 2 2 2 1 -1 -1 -1 0 1 2 2 3 4 6 7 8 9 9 9 9 10 10 11 12 14 15 16 16 16 17 17 18 18 19 19 19 18 17
5 5 5 5 5 5 5 4 4 3 3 2 2 2 2 -1 -2 -1 -1 1 1 2 3 5 7 8 9 9 9 9 9 10 10 11 12 14 16 16 16 16 17 17 18 19 19 19 19 18 18
5 5 5 4 4 4 4 4 4 3 2 2 2 2 2 -0 -2 -2 -1 -0 1 2 3 5 7 8 9 9 9 10 9 10 10 11 13 14 16 16 16 16 16 17 18 19 19 19 19 18 18
4 4 4 4 3 3 3 4 3 2 1 2 2 2 2 0 -2 -2 -2 -1 0 2 3 6 8 9 9 9 9 10 10 10 10 12 13 15 16 16 16 16 16 17 18 18 18 18 18 18 18
4 4 4 3 3 3 3 3 2 1 1 1 2 3 2 1 -0 -1 -1 -1 1 2 4 6 8 9 9 9 9 9 9 10 11 12 14 15 16 16 16 16 16 17 17 17 16 17 17 17 17
3 3 3 3 2 2 2 1 1 0 0 1 2 3 3 2 2 1 -0 0 2 3 5 7 8 9 9 9 9 9 9 10 12 13 14 16 16 16 16 16 16 16 16 16 16 16 16 17 17
2 3 3 3 2 2 1 1 0 -0 0 0 1 2 3 3 3 2 1 1 3 4 6 7 8 8 8 8 8 9 9 11 13 14 15 16 16 16 16 16 16 16 15 15 15 16 15 16 16
2 3 3 3 2 1 1 1 0 0 0 0 1 2 3 3 3 3 2 2 3 5 6 6 7 7 7 8 8 8 9 11 13 15 15 16 16 16 16 16 16 15 15 15 15 15 15 15 16
2 2 3 3 2 1 1 1 1 1 0 0 0 1 2 3 3 4 4 3 4 5 6 6 6 6 6 7 7 8 9 11 13 15 15 16 16 16 16 16 16 15 15 15 15 15 15 15 15
2 2 2 2 2 2 1 1 1 1 1 0 0 1 1 3 3 4 4 5 4 5 5 6 5 5 6 6 7 8 8 10 12 14 15 15 16 16 17 17 16 16 16 16 16 16 16 16 15
2 2 2 2 2 2 2 2 2 2 2 1 1 1 1 2 3 4 4 5 5 5 5 5 5 5 5 6 6 7 8 9 11 13 14 15 16 16 17 17 16 16 16 16 17 17 17 18 17
2 2 2 2 2 2 2 3 3 3 2 2 1 1 1 2 3 4 4 4 5 5 5 5 4 4 4 5 5 6 7 8 10 13 14 15 15 16 16 16 16 17 17 17 18 18 19 19 19
2 2 2 1 1 2 3 3 3 3 3 3 2 1 1 1 2 3 3 4 4 5 6 5 5 4 4 4 4 5 6 8 10 12 14 14 15 15 16 16 16 17 17 18 18 19 19 20 20
2 2 2 1 1 1 2 3 3 3 3 3 2 1 1 1 2 2 3 4 4 4 5 5 5 4 4 4 4 4 6 7 9 11 13 14 15 15 15 16 16 17 18 18 19 19 20 21 21
3 3 2 2 1 1 2 2 2 2 2 2 2 2 1 1 2 2 3 3 4 4 4 5 4 4 4 4 4 4 5 7 8 10 13 14 15 15 15 16 16 17 18 19 19 20 20 21 21
3 3 3 2 1 1 1 2 2 2 2 2 2 2 2 2 2 2 3 3 3 3 4 5 5 4 4 4 4 4 5 7 8 10 13 14 15 15 15 15 16 17 18 19 20 20 20 21 21
3 3 2 2 2 1 1 1 1 1 2 2 2 2 2 2 2 2 2 3 2 3 5 5 5 5 4 4 4 4 5 6 8 10 12 14 14 15 15 15 16 17 18 19 20 20 20 21 21
2 2 2 2 2 2 1 1 1 1 2 2 2 2 3 2 2 2 2 2 3 4 5 6 6 5 5 4 4 3 4 6 8 9 12 13 14 14 15 16 17 18 18 19 20 20 20 20 20